User: anonymous   Login
Location: Unspecified
(0.0000°N, 0.0000°E)
Time: 13:56:23
(UTC+00:00)
Language:

AAUSAT 4 - Orbit

View from above orbital plane
View from above orbital plane
View from above satellite
View from above satellite

Ground track
Ground track

The orbit data is extracted from the following two-line orbital elements,

1 41460U 16025E   21330.66055336  .00007645  00000-0  34308-3 0  9995
2 41460  98.1616 121.6377 0141885 216.3537 142.7949 15.12860089307229
Epoch (UTC): 26 November 2021 15:51:11
Eccentricity: 0.0141885
inclination: 98.1616°
perigee height: 429 km
apogee height: 625 km
right ascension of ascending node: 121.6377°
argument of perigee: 216.3537°
revolutions per day: 15.12860089
mean anomaly at epoch: 142.7949°
orbit number at epoch: 30722

The dashed part of the orbit path shows where the satellite is in the earth's shadow,  

DLR